Regional Weather Roundup
Issued by NWS Upton, NY

Current Version | Previous Version | Graphics & Text | Print | Product List | Glossary Off
Versions: 1 2 3 4 5 6 7 8 9 10 11 12 13 14 15 16 17 18 19 20 21 22 23 24 25 26 27 28 29 30 31 32 33 34 35 36 37 38 39 40 41 42 43 44 45 46 47 48 49 50

000
ASUS41 KOKX 282208
RWROKX

REGIONAL WEATHER ROUNDUP
NATIONAL WEATHER SERVICE NEW YORK NY
600 PM EDT TUE MAR 28 2017

NOTE: "FAIR" INDICATES FEW OR NO CLOUDS BELOW 12,000 FEET WITH NO
SIGNIFICANT WEATHER AND/OR OBSTRUCTIONS TO VISIBILITY.

NYZ071-072-176-178-NJZ106-104-282300-
NEW YORK CITY METRO AREA

CITY           SKY/WX    TMP DP  RH WIND       PRES   REMARKS
Central Park   CLOUDY    42  40  92 NE8       29.91S
Wall St Helipt CLOUDY    43  41  93 NE13      29.90R
LaGuardia APRT CLOUDY    43  39  86 NE14      29.89R
Kennedy INTL   CLOUDY    47  45  93 N7        29.89S FOG
Breezy Point     N/A     45 N/A N/A NE2         N/A
Newark/Liberty LGT RAIN  42  41  96 N14       29.89R FOG
Teterboro      RAIN      44  41  89 NE9       29.89R FOG
$$

NYZ177-179-078>081-282300-
LONG ISLAND NEW YORK

CITY           SKY/WX    TMP DP  RH WIND       PRES   REMARKS
Jones Beach      N/A     43 N/A N/A E15         N/A
Matinecock PT  NOT AVBL
Farmingdale    FOG       43  42  97 NE6       29.87F VSB 3/4
MacArthur/ISP  FOG       44  44 100 E9        29.87S VSB 3/4
Shirley        CLOUDY    43  43 100 N3        29.89R
Westhampton    LGT RAIN  41  39  93 E9        29.90R
East Hampton   LGT RAIN  40  39  95 E10       29.89F WCI  34
Montauk          N/A     41  40  96 E8        29.91
$$

NYZ052-065-067-282300-
HUDSON VALLEY

CITY           SKY/WX    TMP DP  RH WIND       PRES   REMARKS
White Plains   LGT RAIN  41  39  93 E8        29.89R FOG
Newburgh       CLOUDY    45  45 100 E8        29.90R FOG
Montgomery     LGT RAIN  47  45  93 SE3       29.89R FOG
Poughkeepsie   LGT RAIN  44  42  93 CALM      29.90R
Albany         LGT RAIN  47  44  90 S3        29.89F FOG
$$

NJZ001-105-106-008-010-013-015-019>022-104-282300-
NEW JERSEY

CITY           SKY/WX    TMP DP  RH WIND       PRES   REMARKS
Newark/Liberty LGT RAIN  42  41  96 N14       29.89R FOG
Teterboro      RAIN      44  41  89 NE9       29.89R FOG
Caldwell       LGT RAIN  45  43  93 E7        29.90R FOG
Somerville     LGT RAIN  47  46  97 N5        29.86S FOG
Linden         CLOUDY    45  42  91 CALM      29.89R
Sussex         LGT RAIN  47  46  97 CALM      29.89R FOG
Andover          N/A     46  45  96 CALM      29.88R
Trenton        RAIN      47  46  97 NE6       29.87R FOG
Millville      CLOUDY    57  57 100 E5        29.81S
Atlantic City  CLOUDY    50  47  89 NE6       29.84R
Wrightstown    LGT RAIN  48  47  96 N10       29.83S
Toms River     LGT RAIN  46  46 100 N9        29.86F FOG
Belmar         FOG       42  42 100 N6        29.89R VSB 1/4
$$

PAZ047>061-062-071-282300-
EASTERN PENNSYLVANIA

CITY           SKY/WX    TMP DP  RH WIND       PRES   REMARKS
Philadelphia   LGT RAIN  52  50  93 NE8       29.85S FOG
Allentown      LGT RAIN  51  48  89 NE5       29.87R FOG
Scranton       LGT RAIN  50  48  93 E6        29.87R FOG
$$

CTZ002-004>006-009-010-012-RIZ004-006-007-MAZ004-011-015-282300-
SOUTHERN NEW ENGLAND
 IN CT

CITY           SKY/WX    TMP DP  RH WIND       PRES   REMARKS
Bradley INTL   FOG       43  42  97 N8        29.91F VSB 1
Hartford       LGT RAIN  45  43  93 N6        29.92R FOG
Danbury        CLOUDY    44  43  96 E5        29.91R
Wtrbury/Oxford FOG       43  37  81 CALM      29.92R VSB 1
Bridgeport     LGT RAIN  42  39  89 E9        29.91R
Meriden        LGT RAIN  46  43  89 N3        29.91R
New Haven      CLOUDY    42  41  96 CALM      29.90S
Chester        NOT AVBL
Groton         LGT RAIN  44  41  89 NE7       29.90F
Wilimantic     LGT RAIN  45  43  93 NE8       29.91F

 IN RI

CITY           SKY/WX    TMP DP  RH WIND       PRES   REMARKS
Providence     LGT RAIN  44  41  89 NE9       29.93F
Block Island   LGT RAIN  40  39  97 E13       29.90F WCI  32
Westerly       LGT RAIN  44  42  93 NE7       29.91F
 IN MA

CITY           SKY/WX    TMP DP  RH WIND       PRES   REMARKS
Boston         NOT AVBL
Worcester      LGT RAIN  37  35  92 NE6       29.92S VSB 1/4 WCI  32
Westfield      LGT RAIN  42  42 100 NE3       29.91F FOG
Provincetown   LGT RAIN  40  38  93 E6        29.97F
Nantucket      LGT RAIN  41  39  93 NE10      29.93F
$$

ANZ330-335-338-340-345-350-353-355-282300-
COASTAL MARINE OBSERVATIONS


STATION/POSITION TIME  SKY/WX   TEMP    WIND        PRES    VSBY  WAVE
                                AIR SEA DIR/SP/G                  HT/PER
                 (UTC)          (F)     (DEG/KT/KT) (MB)    (MI)  (FT/S)
NY HARB ENTRANCE NOT AVBL
20 S FIRE ISLAND NOT AVBL
GREAT SOUTH BAY  NOT AVBL
23 SSW MONTAUK P NOT AVBL
15 E BARNEGAT LI 2130               44                N/A           4/ 9
HUDSON CANYON    NOT AVBL
KINGS POINT      2130            40 40              1011.6
EXECUTION ROCKS  NOT AVBL
CENTRAL LI SOUND 2115            40      80/ 14/ 17   N/A           2/ 4
EASTERN LI SOUND NOT AVBL
ROBBINS REEF     2130            43      10/  8/ 10 1011.9
$$


>>>>>>>>>>>>>>>>>>>>>>>>>>>> KEY <<<<<<<<<<<<<<<<<<<<<<<<<<<
>                                                          <
>     SKY/WX - Sky Condition/Present Weather               <
>     TMP    - Temperature in Fahrenheit                   <
>     DP     - Dew Point in Fahrenheit                     <
>     RH     - Relative Humidity in Percent                <
>     WIND   - Direction (from) and Speed in MPH           <
>     PRES   - Mean Sea Level Pressure (inches of Hg)      <
>     WCI    - Wind Chill Index                            <
>     VSB    - VISIBILITY IN MILES                         <
>     HX     - HEAT INDEX                                  <
>     TC     - TEMPERATURE IN CELSIUS                      <
>     VRB    - VARIABLE WIND DIRECTION                     <
>                                                          <
>>>>>>>>>>>>>>>>>>>>>>>>>>>> KEY <<<<<<<<<<<<<<<<<<<<<<<<<<<



USA.gov is the U.S. government's official web portal to all federal, state and local government web resources and services.